When you browse on this site, cookies collect data to enhance your experience and personalize the content and advertising you see.
Visit our Privacy Policy to learn more. By continuing to use the site, you agree to this use of cookies and data.
  • In United Kingdom
  • List of Countries
  • For 7 days
  • Water Temperature
  • Satellite Maps
  • Weather Map
  • Weather Widgets
  • user-avatar
    Login

    Hourly Weather Bolgatanga

    Today, 23 April, Tuesday

    Time Temperature Precipitation Wind Pressure Humidity
    00:00 +37°C° 0 mm 1 mps 738 mmHg 34%
    01:00 +37°C° 1.5 mm 2 mps 738 mmHg 39%
    02:00 +36°C° 1.5 mm 4 mps 739 mmHg 44%
    03:00 +35°C° 1.5 mm 5 mps 739 mmHg 48%
    04:00 +34°C° 0.4 mm 5 mps 739 mmHg 51%
    05:00 +34°C° 0.4 mm 4 mps 739 mmHg 54%
    06:00 +34°C° 0 mm 2 mps 739 mmHg 52%
    07:00 +35°C° 0 mm 3 mps 740 mmHg 50%
    08:00 +36°C° 0 mm 3 mps 740 mmHg 49%
    09:00 +37°C° 0 mm 4 mps 741 mmHg 48%
    10:00 +38°C° 0 mm 3 mps 740 mmHg 43%
    11:00 +39°C° 0 mm 3 mps 740 mmHg 39%
    12:00 +42°C° 0 mm 3 mps 740 mmHg 35%
    13:00 +42°C° 0 mm 3 mps 739 mmHg 32%
    14:00 +42°C° 0 mm 2 mps 739 mmHg 30%
    15:00 +42°C° 0 mm 2 mps 738 mmHg 28%
    16:00 +42°C° 0 mm 2 mps 738 mmHg 29%
    17:00 +41°C° 0 mm 1 mps 738 mmHg 29%
    18:00 +41°C° 0 mm 1 mps 738 mmHg 30%
    19:00 +41°C° 0 mm 1 mps 738 mmHg 31%
    20:00 +40°C° 0 mm 1 mps 739 mmHg 32%
    21:00 +37°C° 0 mm 0 mps 739 mmHg 33%
    22:00 +39°C° 0.1 mm 1 mps 739 mmHg 35%
    23:00 +38°C° 0.1 mm 2 mps 739 mmHg 38%

    Tomorrow, 24 April, Wednesday

    Time Temperature Precipitation Wind Pressure Humidity
    00:00 +38°C° 0.1 mm 3 mps 739 mmHg 40%
    01:00 +37°C° 0 mm 3 mps 739 mmHg 43%
    02:00 +36°C° 0 mm 2 mps 739 mmHg 46%
    03:00 +36°C° 0 mm 2 mps 739 mmHg 49%
    04:00 +35°C° 0 mm 2 mps 739 mmHg 49%
    05:00 +35°C° 0 mm 3 mps 740 mmHg 50%
    06:00 +35°C° 0 mm 3 mps 740 mmHg 51%
    07:00 +36°C° 0 mm 4 mps 740 mmHg 49%
    08:00 +36°C° 0 mm 4 mps 741 mmHg 48%
    09:00 +37°C° 0 mm 5 mps 741 mmHg 47%
    10:00 +38°C° 0 mm 4 mps 741 mmHg 43%
    11:00 +41°C° 0 mm 4 mps 741 mmHg 39%
    12:00 +42°C° 0 mm 3 mps 741 mmHg 34%
    13:00 +43°C° 0 mm 3 mps 740 mmHg 32%
    14:00 +44°C° 0 mm 3 mps 739 mmHg 29%
    15:00 +44°C° 0 mm 3 mps 739 mmHg 27%
    16:00 +43°C° 0.3 mm 3 mps 739 mmHg 27%
    17:00 +42°C° 0.3 mm 3 mps 739 mmHg 27%
    18:00 +41°C° 0.3 mm 4 mps 739 mmHg 28%
    19:00 +40°C° 0 mm 3 mps 739 mmHg 28%
    20:00 +39°C° 0 mm 2 mps 740 mmHg 28%
    21:00 +38°C° 0 mm 2 mps 740 mmHg 29%
    22:00 +37°C° 1.6 mm 2 mps 741 mmHg 35%
    23:00 +36°C° 1.6 mm 2 mps 742 mmHg 42%

    Day after tomorrow, 25 April, Thursday

    Time Temperature Precipitation Wind Pressure Humidity
    00:00 +35°C° 1.6 mm 2 mps 742 mmHg 49%
    01:00 +34°C° 0.1 mm 3 mps 742 mmHg 53%
    02:00 +34°C° 0.1 mm 4 mps 741 mmHg 57%
    03:00 +33°C° 0.1 mm 4 mps 741 mmHg 61%
    04:00 +33°C° 0 mm 4 mps 741 mmHg 61%
    05:00 +33°C° 0 mm 4 mps 741 mmHg 62%
    06:00 +33°C° 0 mm 3 mps 741 mmHg 62%
    07:00 +34°C° 0 mm 3 mps 742 mmHg 58%
    08:00 +35°C° 0 mm 2 mps 742 mmHg 55%
    09:00 +35°C° 0 mm 2 mps 743 mmHg 51%
    10:00 +37°C° 0 mm 2 mps 742 mmHg 47%
    11:00 +38°C° 0 mm 2 mps 742 mmHg 42%
    12:00 +40°C° 0 mm 2 mps 742 mmHg 38%
    13:00 +41°C° 0 mm 1 mps 741 mmHg 35%
    14:00 +42°C° 0 mm 1 mps 740 mmHg 32%
    15:00 +40°C° 0 mm 0 mps 739 mmHg 29%
    16:00 +42°C° 0 mm 1 mps 739 mmHg 30%
    17:00 +42°C° 0 mm 1 mps 739 mmHg 30%
    18:00 +41°C° 0 mm 2 mps 739 mmHg 31%
    19:00 +40°C° 0 mm 2 mps 740 mmHg 33%
    20:00 +40°C° 0 mm 2 mps 740 mmHg 35%
    21:00 +39°C° 0 mm 2 mps 741 mmHg 37%
    22:00 +38°C° 0 mm 3 mps 741 mmHg 41%
    23:00 +38°C° 0 mm 3 mps 741 mmHg 44%

    26 April, Friday

    Time Temperature Precipitation Wind Pressure Humidity
    00:00 +37°C° 0 mm 3 mps 740 mmHg 47%
    01:00 +37°C° 0 mm 3 mps 740 mmHg 47%
    02:00 +36°C° 0 mm 3 mps 740 mmHg 48%
    03:00 +36°C° 0 mm 3 mps 739 mmHg 48%
    04:00 +35°C° 0 mm 3 mps 739 mmHg 50%
    05:00 +35°C° 0 mm 2 mps 740 mmHg 52%
    06:00 +34°C° 0 mm 2 mps 740 mmHg 53%
    07:00 +36°C° 0 mm 2 mps 741 mmHg 50%
    08:00 +37°C° 0 mm 3 mps 741 mmHg 48%
    09:00 +38°C° 0 mm 3 mps 741 mmHg 45%
    10:00 +39°C° 0 mm 3 mps 741 mmHg 40%
    11:00 +42°C° 0 mm 3 mps 740 mmHg 36%
    12:00 +42°C° 0 mm 2 mps 740 mmHg 31%
    13:00 +43°C° 0 mm 2 mps 739 mmHg 28%
    14:00 +45°C° 0 mm 2 mps 738 mmHg 24%
    15:00 +45°C° 0 mm 1 mps 737 mmHg 21%
    16:00 +45°C° 0 mm 1 mps 738 mmHg 21%
    17:00 +44°C° 0 mm 1 mps 738 mmHg 22%
    18:00 +43°C° 0 mm 1 mps 738 mmHg 22%
    19:00 +43°C° 0 mm 2 mps 738 mmHg 26%
    20:00 +43°C° 0 mm 3 mps 738 mmHg 30%
    21:00 +42°C° 0 mm 4 mps 739 mmHg 34%
    22:00 +41°C° 0 mm 4 mps 739 mmHg 36%
    23:00 +40°C° 0 mm 3 mps 738 mmHg 39%

    27 April, Saturday

    Time Temperature Precipitation Wind Pressure Humidity
    00:00 +39°C° 0 mm 3 mps 738 mmHg 41%
    01:00 +38°C° 0 mm 3 mps 738 mmHg 43%
    02:00 +38°C° 0 mm 3 mps 737 mmHg 45%
    03:00 +37°C° 0 mm 3 mps 737 mmHg 46%
    04:00 +36°C° 0 mm 3 mps 737 mmHg 49%
    05:00 +36°C° 0 mm 4 mps 738 mmHg 51%
    06:00 +35°C° 0 mm 5 mps 739 mmHg 54%
    07:00 +36°C° 0 mm 5 mps 739 mmHg 53%
    08:00 +36°C° 0 mm 6 mps 740 mmHg 53%
    09:00 +36°C° 0 mm 6 mps 740 mmHg 52%
    10:00 +39°C° 0 mm 6 mps 740 mmHg 48%
    11:00 +40°C° 0 mm 6 mps 740 mmHg 43%
    12:00 +42°C° 0 mm 5 mps 739 mmHg 39%
    13:00 +42°C° 0 mm 5 mps 738 mmHg 37%
    14:00 +42°C° 0 mm 5 mps 738 mmHg 35%
    15:00 +43°C° 0 mm 4 mps 737 mmHg 34%
    16:00 +42°C° 0 mm 4 mps 737 mmHg 34%
    17:00 +42°C° 0 mm 4 mps 737 mmHg 35%
    18:00 +42°C° 0 mm 3 mps 737 mmHg 35%
    19:00 +41°C° 0 mm 4 mps 738 mmHg 37%
    20:00 +40°C° 0 mm 4 mps 738 mmHg 39%
    21:00 +40°C° 0 mm 5 mps 739 mmHg 41%
    22:00 +39°C° 0 mm 5 mps 739 mmHg 44%
    23:00 +39°C° 0 mm 5 mps 739 mmHg 46%

    28 April, Sunday

    Time Temperature Precipitation Wind Pressure Humidity
    00:00 +38°C° 0 mm 6 mps 739 mmHg 49%
    01:00 +36°C° 0.2 mm 6 mps 739 mmHg 52%
    02:00 +35°C° 0.2 mm 6 mps 739 mmHg 55%
    03:00 +35°C° 0.2 mm 6 mps 739 mmHg 58%
    04:00 +34°C° 0 mm 6 mps 739 mmHg 59%
    05:00 +34°C° 0 mm 5 mps 739 mmHg 60%
    06:00 +34°C° 0 mm 5 mps 740 mmHg 61%
    07:00 +35°C° 0 mm 5 mps 740 mmHg 58%
    08:00 +35°C° 0 mm 5 mps 740 mmHg 55%
    09:00 +36°C° 0 mm 5 mps 740 mmHg 52%
    10:00 +38°C° 0 mm 4 mps 740 mmHg 47%
    11:00 +41°C° 0 mm 4 mps 740 mmHg 41%
    12:00 +42°C° 0 mm 4 mps 739 mmHg 36%
    13:00 +43°C° 0 mm 3 mps 738 mmHg 33%
    14:00 +44°C° 0 mm 3 mps 738 mmHg 30%
    15:00 +45°C° 0 mm 2 mps 737 mmHg 26%
    16:00 +44°C° 0 mm 3 mps 737 mmHg 27%
    17:00 +44°C° 0 mm 3 mps 738 mmHg 27%
    18:00 +44°C° 0 mm 3 mps 738 mmHg 27%
    19:00 +43°C° 0 mm 3 mps 738 mmHg 29%
    20:00 +42°C° 0 mm 3 mps 739 mmHg 31%
    21:00 +41°C° 0 mm 4 mps 739 mmHg 33%
    22:00 +40°C° 0 mm 4 mps 739 mmHg 36%
    23:00 +38°C° 0 mm 4 mps 739 mmHg 39%
    Show more